Tracking 19709 objects as of 18-Jun-2019
HD Live streaming from Space Station
objects crossing your sky now

GEOTAIL

Track GEOTAIL now!
GEOTAIL is classified as:


NORAD ID: 22049
Int'l Code: 1992-044A
Perigee: 48,252.0 km
Apogee: 192,533.5 km
Inclination: 18.9 °
Period: 7,486.0 minutes
Semi major axis: 126763 km
RCS: 3.5 m2 (large)
Launch date: July 24, 1992
Source: Japan (JPN)
Launch site: AIR FORCE EASTERN TEST RANGE (AFETR)

Study the dynamics of the Earth's magnetotail over a wide range of distance
aabbcc
Your satellite tracking list
Your tracking list is empty




NASA's NSSDC Master Catalog

Two Line Element Set (TLE):
1 22049U 92044A   19168.22676395 -.00000968  00000-0  00000+0 0  9994
2 22049  18.8751  58.4728 5690960 152.1144   0.4170  0.19235809 10848
Source of the keplerian elements: AFSPC